Flag for U.S.A. Weather past 2 weeks in St. Petersburg, Florida, U.S.A.

Now
80 °F

Passing clouds.


Feels Like: 85 °F
Forecast: 78 / 85 °F
Wind: 14 mph from Southwest

Location: Whitted Airport

Current Time: Apr 26, 2015 at 5:46:20 AM

Latest Report: Apr 26, 2015 at 4:53 AM


Visibility: 9 mi

Pressure: 29.74 "Hg

Humidity: 85%

Dew point: 75 °F

Location of St. PetersburgLocation

Historic Weather in St. Petersburg — Graph

°F

St. Petersburg temperature yesterday

Maximum temperature yesterday: 84 °F (at 12:53 PM)
Minimum temperature yesterday: 74 °F (at 6:53 AM)
Average temperature yesterday: 79 °F

Past Weeks' High & Low Weather Summary

 TemperatureHumidityPressure
High86 °F (Apr 12, 2:53 PM)94% (Apr 19, 7:53 AM)30.15 "Hg (Apr 19, 7:53 AM)
Low71 °F (Apr 20, 5:53 PM)35% (Apr 22, 3:53 PM)29.74 "Hg (Apr 26, 4:53 AM)
Average78 °F75%29.99 "Hg
* Reported Apr 11 4:53 AM — Apr 26 4:53 AM, St. Petersburg, Weather by CustomWeather, © 2015

Note: Actual official high and low records may vary slightly from our data, if they occured in-between our weather recording intervals... More about our weather records

Advertising

St. Petersburg weather history for previous 24 hours

 ConditionsComfort  
Time TempWeatherWind HumidityBarometerVisibility
4:53 AM
Sun, Apr 26
80 °FPassing clouds.14 mph85%29.74 "Hg9 mi
3:53 AM80 °FPartly cloudy.18 mph81%29.75 "Hg10 mi
2:53 AM80 °FPassing clouds.16 mph81%29.78 "Hg10 mi
1:53 AM80 °FPassing clouds.15 mph81%29.81 "Hg10 mi
12:53 AM80 °FPassing clouds.13 mph81%29.83 "Hg10 mi
11:53 PM
Sat, Apr 25
80 °FPassing clouds.9 mph81%29.86 "Hg10 mi
11:03 PM80 °FPassing clouds.13 mph81%29.87 "Hg10 mi
9:53 PM80 °FClear.10 mph81%29.84 "Hg10 mi
8:53 PM80 °FSunny.9 mph79%29.82 "Hg10 mi
7:53 PM81 °FPassing clouds.10 mph77%29.81 "Hg10 mi
6:53 PM81 °FScattered clouds.8 mph77%29.83 "Hg10 mi
5:53 PM82 °FPartly sunny.10 mph72%29.83 "Hg10 mi
4:53 PM82 °FPassing clouds.13 mph72%29.83 "Hg10 mi
4:01 PM83 °FScattered clouds.13 mph70%29.84 "Hg10 mi
2:53 PM83 °FScattered clouds.16 mph70%29.86 "Hg10 mi
1:53 PM84 °FBroken clouds.15 mph65%29.89 "Hg10 mi
12:53 PM84 °FScattered clouds.13 mph65%29.92 "Hg10 mi
11:53 AM82 °FPartly sunny.13 mph74%29.95 "Hg10 mi
10:53 AM81 °FPassing clouds.10 mph77%29.93 "Hg10 mi
9:53 AM80 °FPartly sunny.12 mph76%29.92 "Hg10 mi
8:53 AM77 °FSunny.14 mph82%29.91 "Hg10 mi
7:53 AM74 °FClear.12 mph91%29.92 "Hg10 mi
6:53 AM74 °FClear.13 mph91%29.90 "Hg10 mi
5:53 AM75 °FPassing clouds.17 mph88%29.88 "Hg10 mi
Weather by CustomWeather, © 2015

See weather overviewHow to use our weather pages